This is the latest recevied weather packets stored in our database for station/object WY7ATH-2. If no packets are shown the sender has not sent any weather packets the latest 10 day(s).
| Time | Temp. | Humidity | Pressure | Rain* | Wind** | Luminosity | Snow |
|---|---|---|---|---|---|---|---|
| 1777610598 | 0.56° C | - | - | 0 mm | 0 m/s | - | - |
| 1777610001 | 0.56° C | - | - | 0 mm | 0 m/s | - | - |
| 1777609401 | 0.56° C | - | - | 0 mm | 0 m/s | - | - |
| 1777608804 | 1.67° C | - | - | 0 mm | 0 m/s | - | - |
| 1777607610 | 2.22° C | - | - | 0 mm | 0 m/s | - | - |
| 1777607013 | 2.78° C | - | - | 0 mm | 0 m/s | - | - |
| 1777605816 | 2.78° C | - | - | 0 mm | 0 m/s | - | - |
| 1777605244 | 2.22° C | - | - | 0 mm | 0 m/s | - | - |
| 1777604622 | 2.22° C | - | - | 0 mm | 0 m/s | - | - |
| 1777604025 | 2.22° C | - | - | 3.05 mm | 0 m/s | - | - |
| 1777601634 | 2.22° C | - | - | 3.05 mm | 0 m/s | - | - |
| 1777601037 | 2.78° C | - | - | 3.05 mm | 0 m/s | - | - |
| 1777600440 | 2.78° C | - | - | 9.91 mm | 0 m/s | - | - |
| 1777599247 | 3.33° C | - | - | 9.91 mm | 0 m/s | - | - |
| 1777598049 | 4.44° C | - | - | 9.91 mm | 0 m/s | - | - |
| 1777597452 | 5.56° C | - | - | 9.91 mm | 0 m/s | - | - |
| 1777596855 | 5.56° C | - | - | 10.92 mm | 0 m/s | - | - |
| 1777595061 | 6.67° C | - | - | 10.92 mm | 0 m/s | - | - |
| 1777594464 | 5.56° C | - | - | 10.92 mm | 0 m/s | - | - |
| 1777593867 | 5.56° C | - | - | 10.92 mm | 0 m/s | - | - |
| 1777592673 | 5.56° C | - | - | 11.18 mm | 0 m/s | - | - |
| 1777589685 | 5.56° C | - | - | 12.95 mm | 0 m/s | - | - |
| 1777589088 | 6.11° C | - | - | 12.95 mm | 0 m/s | - | - |
| 1777587891 | 5.56° C | - | - | 12.95 mm | 0 m/s | - | - |
| 1777587294 | 6.11° C | - | - | 12.95 mm | 0 m/s | - | - |
* Rain latest hour (hover to see other rain measurements)
** Current wind speed in m/s (hover to see current wind gust speed)